Weather History for Buffalo, WY

Change the Weather History Date:

Saturday, December 1, 2012

  Actual Average Record
Temperature  
Mean Temperature 48 °F 27 °F  
Max Temperature 57 °F 38 °F 60 °F (1998)
Min Temperature 38 °F 17 °F 2 °F (2007)
Degree Days  
Heating Degree Days 17 38  
Month to date heating degree days 17 38  
Since 1 July heating degree days 1574 1872  
Cooling Degree Days 0 0  
Month to date cooling degree days 0 0  
Year to date cooling degree days 795 492  
Moisture  
Dew Point 27 °F    
Average Humidity 46    
Maximum Humidity 64    
Minimum Humidity 28    
Precipitation  
Precipitation 0.00 in 0.02 in 0.04 in (2007)
Month to date precipitation 0.00 0.02  
Year to date precipitation 8.82 13.07  
Sea Level Pressure  
Sea Level Pressure 29.76 in    
Wind  
Wind Speed 10 mph (West)    
Max Wind Speed 30 mph    
Max Gust Speed 35 mph    
Visibility 10 miles    
Events      
T = Trace of Precipitation, MM = Missing Value Source: NWS Daily Summary

Daily Weather History Graph

Daily Weather History Graph

Search for Another Location

Airport:

Trip Planner

Search our weather history database for the weather conditions in past years. The results will help you decide how hot, cold, wet, or windy it might be!

Date:

Astronomy

Dec. 01, 2012 Rise Set
Actual Time 7:23 AM MST 4:28 PM MST
Civil Twilight 6:50 AM MST 5:01 PM MST
Nautical Twilight 6:14 AM MST 5:37 PM MST
Astronomical Twilight 5:39 AM MST 6:12 PM MST
Moon 7:23 PM MST 9:36 AM MST
Length of Visible Light 10h 10m
Length of Day
9h 05m
Waning Gibbous, 91% of the Moon is Illuminated
Dec 1
Waning Gibbous
Dec 6
Last Quarter
Dec 13
New
Dec 19
First Quarter
Dec 28
Full

Hourly Weather History & Observations

Time (MST) Temp. Windchill Dew Point Humidity Pressure Visibility Wind Dir Wind Speed Gust Speed Precip Events Conditions
12:53 AM 50.0 °F - 27.0 °F 41% 29.68 in 10.0 mi SW 8.1 mph - N/A   Clear
1:53 AM 50.0 °F - 28.0 °F 43% 29.64 in 10.0 mi West 19.6 mph 28.8 mph N/A   Overcast
2:53 AM 48.9 °F - 28.9 °F 46% 29.67 in 10.0 mi West 17.3 mph 23.0 mph N/A   Overcast
3:43 AM 46.4 °F 41.9 °F 26.6 °F 46% 29.75 in 10.0 mi NNW 9.2 mph 26.5 mph N/A   Partly Cloudy
3:53 AM 46.0 °F 41.9 °F 28.0 °F 50% 29.70 in 10.0 mi NNW 8.1 mph - N/A   Partly Cloudy
5:53 AM 39.9 °F 32.9 °F 28.9 °F 65% 29.78 in 10.0 mi WNW 11.5 mph - N/A   Clear
6:53 AM 39.9 °F 36.7 °F 28.0 °F 63% 29.78 in 10.0 mi NNW 4.6 mph - N/A   Clear
8:53 AM 41.0 °F 37.1 °F 28.9 °F 62% 29.81 in 10.0 mi West 5.8 mph - N/A   Clear
9:53 AM 42.1 °F 37.1 °F 30.9 °F 65% 29.81 in 10.0 mi West 8.1 mph - N/A   Partly Cloudy
10:53 AM 48.0 °F - 33.1 °F 56% 29.77 in 10.0 mi SE 5.8 mph - N/A   Clear
11:53 AM 51.1 °F - 33.1 °F 50% 29.76 in 10.0 mi Calm Calm - N/A   Clear
12:53 PM 57.0 °F - 25.0 °F 29% 29.72 in 10.0 mi Variable 3.5 mph - N/A   Clear
1:53 PM 55.9 °F - 26.1 °F 32% 29.73 in 10.0 mi West 19.6 mph 27.6 mph N/A   Clear
2:53 PM 51.1 °F - 30.9 °F 46% 29.77 in 10.0 mi West 17.3 mph 24.2 mph N/A   Clear
3:53 PM 51.1 °F - 26.1 °F 38% 29.76 in 10.0 mi West 9.2 mph 21.9 mph N/A   Clear
4:53 PM 50.0 °F - 25.0 °F 38% 29.78 in 10.0 mi North 9.2 mph 25.3 mph N/A   Clear
5:18 PM 50.0 °F - 26.6 °F 40% 29.82 in 10.0 mi West 18.4 mph 24.2 mph N/A   Clear
5:53 PM 48.9 °F - 26.1 °F 41% 29.79 in 10.0 mi West 21.9 mph 26.5 mph N/A   Clear
6:53 PM 46.9 °F - 23.0 °F 39% 29.80 in 10.0 mi Variable 4.6 mph - N/A   Clear
7:53 PM 48.9 °F - 24.1 °F 38% 29.78 in 10.0 mi WSW 12.7 mph 18.4 mph N/A   Clear
8:53 PM 46.9 °F - 24.1 °F 41% 29.81 in 10.0 mi SE 10.4 mph - N/A   Scattered Clouds
9:53 PM 48.0 °F - 25.0 °F 41% 29.81 in 10.0 mi South 11.5 mph 19.6 mph N/A   Clear
10:53 PM 48.9 °F - 25.0 °F 39% 29.77 in 10.0 mi SSW 10.4 mph - N/A   Clear
11:53 PM 45.0 °F 40.6 °F 26.1 °F 48% 29.77 in 10.0 mi South 8.1 mph - N/A   Clear